Location: Esp�n
(42.4593°N, 0.2047°W)
Time: 08:11:47
(UTC+00:00)

STARLINK-70 - Pass Details

Date: 02 October 2020
Orbit: 441 x 442 km, 53.0° (Epoch: 21 October)

Event Time Altitude Azimuth Distance (km) Brightness Sun altitude
Rises 05:25:51 0° 202° (SSW) 2,413 6.7 -7.0°
Reaches altitude 10° 05:28:12 10° 189° (S) 1,548 5.8 -6.6°
Maximum altitude 05:31:04 24° 133° (SE) 945 5.5 -6.0°
Drops below altitude 10° 05:33:58 10° 77° (ENE) 1,557 7.6 -5.5°
Sets 05:36:20 0° 63° (ENE) 2,431 8.2 -5.1°
